GW4616 Weather Reports


time (UTC)temp
C
wind
direction
speed
KPH
gust
KPH
rain 1hr
cm
rain 24hr
cm
rain mn
cm
humidity
%
barometer
mb
20260510022608 12 108 0.0 0.0 0.00 0.00 0.00 79 1009.4
20260510022102 12 113 3.2 3.2 0.00 0.00 0.00 78 1009.7
20260510021558 13 100 0.0 0.0 0.00 0.00 0.00 75 1009.5
20260510021056 13 101 0.0 0.0 0.00 0.00 0.00 77 1009.4
20260510020549 12 102 0.0 0.0 0.00 0.00 0.00 76 1009.2
20260510020045 12 101 0.0 0.0 0.00 0.00 0.00 76 1009.4
20260510015541 12 102 0.0 0.0 0.00 0.00 0.00 76 1009.0
20260510015038 12 70 0.0 1.6 0.00 0.00 0.00 76 1008.9
20260510014534 12 325 0.0 0.0 0.00 0.00 0.00 76 1009.1
20260510014031 13 326 0.0 1.6 0.00 0.00 0.00 74 1009.1
20260510013526 12 93 0.0 0.0 0.00 0.00 0.00 75 1008.8
20260510013022 12 122 0.0 1.6 0.00 0.00 0.00 76 1008.8
20260510012516 13 250 1.6 1.6 0.00 0.00 0.00 75 1008.7
20260510012013 13 138 1.6 1.6 0.00 0.00 0.00 71 1008.6
20260510011508 13 317 0.0 0.0 0.00 0.00 0.00 71 1008.5
20260510011003 15 317 1.6 3.2 0.00 0.00 0.00 68 1008.4
20260510010501 15 134 4.8 6.4 0.00 0.00 0.00 67 1008.3
20260510005957 15 122 1.6 3.2 0.00 0.00 0.00 66 1008.2
20260510005453 15 113 4.8 4.8 0.00 0.00 0.00 67 1008.3
20260510004951 15 122 0.0 1.6 0.00 0.00 0.00 67 1008.3
20260510004448 15 122 0.0 1.6 0.00 0.00 0.00 67 1008.3
20260510003946 15 118 1.6 3.2 0.00 0.00 0.00 69 1008.0
20260510003443 16 127 0.0 1.6 0.00 0.00 0.00 68 1008.0
20260510002942 16 126 3.2 3.2 0.00 0.00 0.00 67 1007.9
20260510002433 16 164 0.0 0.0 0.00 0.00 0.00 66 1007.8
20260510001930 17 200 0.0 1.6 0.00 0.00 0.00 65 1007.7
20260510001427 17 259 0.0 0.0 0.00 0.00 0.00 63 1007.6
20260510000925 18 222 0.0 3.2 0.00 0.00 0.00 58 1007.6
20260510000421 18 129 3.2 4.8 0.00 0.00 0.00 58 1007.4
20260509235917 18 175 1.6 1.6 0.00 0.00 0.00 62 1007.5
20260509235414 19 157 3.2 3.2 0.00 0.00 0.00 58 1007.4
20260509234910 20 211 1.6 3.2 0.00 0.00 0.00 54 1007.4
20260509234408 20 253 0.0 0.0 0.00 0.00 0.00 54 1007.4
20260509233906 20 184 1.6 3.2 0.00 0.00 0.00 54 1007.4
20260509233403 21 224 3.2 4.8 0.00 0.00 0.00 53 1007.2
20260509232858 21 246 1.6 1.6 0.00 0.00 0.00 50 1007.3
20260509232356 22 251 3.2 3.2 0.00 0.00 0.00 49 1007.4
20260509231852 22 259 0.0 3.2 0.00 0.00 0.00 48 1007.4
20260509231349 22 275 1.6 1.6 0.00 0.00 0.00 46 1007.4
20260509230847 23 234 1.6 3.2 0.00 0.00 0.00 45 1007.5
20260509230344 23 317 0.0 1.6 0.00 0.00 0.00 43 1007.4
20260509225839 23 318 1.6 3.2 0.00 0.00 0.00 41 1007.4
20260509225336 22 349 0.0 1.6 0.00 0.00 0.00 42 1007.3
20260509224832 23 344 0.0 1.6 0.00 0.00 0.00 41 1007.3
20260509224328 23 275 1.6 3.2 0.00 0.00 0.00 42 1007.5
20260509223825 22 261 1.6 3.2 0.00 0.00 0.00 44 1007.5
20260509223322 23 6 3.2 3.2 0.00 0.00 0.00 42 1007.6
20260509222819 22 320 0.0 0.0 0.00 0.00 0.00 42 1007.4
20260509222314 22 16 1.6 4.8 0.00 0.00 0.00 44 1007.5
20260509221810 22 13 1.6 3.2 0.00 0.00 0.00 46 1007.6
20260509221308 22 25 3.2 3.2 0.00 0.00 0.00 47 1007.7
20260509220808 22 336 1.6 3.2 0.00 0.00 0.00 49 1007.4
20260509220304 22 23 6.4 6.4 0.00 0.00 0.00 43 1007.5
20260509215759 22 4 3.2 3.2 0.00 0.00 0.00 46 1007.6
20260509215256 21 1 1.6 4.8 0.00 0.00 0.00 43 1007.6
20260509214754 21 41 4.8 6.4 0.00 0.00 0.00 46 1007.5
20260509214250 21 64 3.2 6.4 0.00 0.00 0.00 45 1007.4
20260509213747 21 26 3.2 6.4 0.00 0.00 0.00 48 1007.3
20260509213243 20 80 0.0 4.8 0.00 0.00 0.00 52 1007.4
20260509212741 20 9 4.8 11.3 0.00 0.00 0.00 51 1007.5
20260509212238 20 32 6.4 11.3 0.00 0.00 0.00 50 1007.5
20260509211733 19 350 6.4 11.3 0.00 0.00 0.00 52 1007.6
20260509211230 19 37 8.0 11.3 0.00 0.00 0.00 49 1007.4
20260509210727 20 38 4.8 14.5 0.00 0.00 0.00 51 1007.2
20260509210225 20 26 9.7 12.9 0.00 0.00 0.00 48 1007.2
20260509205724 20 21 4.8 9.7 0.00 0.00 0.00 48 1007.2
20260509205224 20 17 6.4 9.7 0.00 0.00 0.00 48 1007.2
20260509204720 20 21 9.7 12.9 0.00 0.00 0.00 49 1007.2
20260509204216 21 48 9.7 12.9 0.00 0.00 0.00 45 1007.1
20260509203712 20 32 11.3 14.5 0.00 0.00 0.00 47 1007.1
20260509203212 20 34 8.0 12.9 0.00 0.00 0.00 48 1007.0
20260509202712 19 40 4.8 6.4 0.00 0.00 0.00 51 1007.2
20260509202207 19 36 3.2 9.7 0.00 0.00 0.00 51 1007.0
20260509201702 19 42 3.2 6.4 0.00 0.00 0.00 48 1007.1
20260509201200 19 45 6.4 11.3 0.00 0.00 0.00 47 1006.9
20260509200656 19 32 4.8 11.3 0.00 0.00 0.00 46 1007.0
20260509200152 19 18 3.2 6.4 0.00 0.00 0.00 46 1007.0
20260509195648 19 24 3.2 4.8 0.00 0.00 0.00 48 1006.9
20260509195143 20 16 3.2 6.4 0.00 0.00 0.00 47 1006.9
20260509194642 20 61 3.2 6.4 0.00 0.00 0.00 46 1007.0
20260509194140 20 67 3.2 3.2 0.00 0.00 0.00 46 1007.1
20260509193635 20 14 1.6 4.8 0.00 0.00 0.00 47 1007.1
20260509193131 20 10 1.6 6.4 0.00 0.00 0.00 47 1007.0
20260509192628 20 22 1.6 1.6 0.00 0.00 0.00 47 1007.2
20260509192123 21 21 1.6 3.2 0.00 0.00 0.00 42 1007.2
20260509191617 20 314 3.2 4.8 0.00 0.00 0.00 44 1007.3
20260509191114 21 43 4.8 6.4 0.00 0.00 0.00 45 1007.4
20260509190611 21 10 4.8 6.4 0.00 0.00 0.00 43 1007.4
20260509190109 21 45 3.2 6.4 0.00 0.00 0.00 47 1007.5
20260509185606 20 103 1.6 3.2 0.00 0.00 0.00 45 1007.4
20260509185102 20 10 0.0 6.4 0.00 0.00 0.00 47 1007.4
20260509184600 20 27 6.4 6.4 0.00 0.00 0.00 50 1007.4
20260509184057 19 338 0.0 1.6 0.00 0.00 0.00 53 1007.5
20260509183552 18 7 1.6 3.2 0.00 0.00 0.00 50 1007.5
20260509183048 18 323 3.2 3.2 0.00 0.00 0.00 48 1007.4
20260509182545 18 353 1.6 3.2 0.00 0.00 0.00 50 1007.7
20260509182041 18 300 1.6 3.2 0.00 0.00 0.00 47 1007.8
20260509181540 18 277 3.2 4.8 0.00 0.00 0.00 47 1007.9
20260509181037 18 237 0.0 1.6 0.00 0.00 0.00 50 1007.8
20260509180532 18 289 0.0 3.2 0.00 0.00 0.00 49 1008.0
20260509180031 18 272 3.2 4.8 0.00 0.00 0.00 50 1008.0
20260509175531 18 264 3.2 6.4 0.00 0.00 0.00 49 1008.0
20260509175028 18 227 0.0 0.0 0.00 0.00 0.00 50 1008.1
20260509174524 18 222 3.2 4.8 0.00 0.00 0.00 50 1008.1
20260509174020 18 182 1.6 3.2 0.00 0.00 0.00 50 1008.2
20260509173514 18 252 4.8 4.8 0.00 0.00 0.00 48 1008.1
20260509173011 18 207 4.8 6.4 0.00 0.00 0.00 49 1008.4
20260509172508 18 254 1.6 4.8 0.00 0.00 0.00 53 1008.4
20260509172004 18 22 3.2 4.8 0.00 0.00 0.00 52 1008.5
20260509171500 17 292 0.0 3.2 0.00 0.00 0.00 53 1008.6
20260509170957 17 238 1.6 3.2 0.00 0.00 0.00 52 1008.5
20260509170452 17 268 1.6 3.2 0.00 0.00 0.00 55 1008.4
20260509165948 17 269 0.0 1.6 0.00 0.00 0.00 57 1008.2
20260509165447 17 338 0.0 0.0 0.00 0.00 0.00 54 1008.6
20260509164942 17 42 0.0 0.0 0.00 0.00 0.00 55 1008.7
20260509164439 16 103 0.0 1.6 0.00 0.00 0.00 55 1008.7
20260509163935 16 148 1.6 3.2 0.00 0.00 0.00 57 1008.8
20260509163432 16 88 0.0 1.6 0.00 0.00 0.00 54 1008.6
20260509162931 16 76 0.0 0.0 0.00 0.00 0.00 58 1009.0
20260509162430 16 52 0.0 0.0 0.00 0.00 0.00 58 1008.8
20260509161926 16 74 1.6 3.2 0.00 0.00 0.00 56 1009.1
20260509161422 16 55 1.6 3.2 0.00 0.00 0.00 60 1009.6
20260509160918 16 65 0.0 1.6 0.00 0.00 0.00 59 1009.4
20260509160413 16 352 4.8 4.8 0.00 0.00 0.00 59 1009.4
20260509155909 15 64 3.2 3.2 0.00 0.00 0.00 59 1009.2
20260509155406 15 32 1.6 4.8 0.00 0.00 0.00 59 1009.2
20260509154902 16 32 4.8 6.4 0.00 0.00 0.00 58 1009.2
20260509154359 16 60 4.8 4.8 0.00 0.00 0.00 58 1009.1
20260509153855 16 17 6.4 9.7 0.00 0.00 0.00 56 1009.1
20260509153353 16 34 4.8 11.3 0.00 0.00 0.00 56 1009.1
20260509152849 16 36 4.8 9.7 0.00 0.00 0.00 58 1008.9
20260509152345 16 40 8.0 9.7 0.00 0.00 0.00 57 1008.6
20260509151843 16 33 1.6 9.7 0.00 0.00 0.00 58 1008.9
20260509151339 15 43 8.0 9.7 0.00 0.00 0.00 59 1008.9
20260509150837 15 44 6.4 9.7 0.00 0.00 0.00 58 1009.1
20260509150335 16 66 3.2 4.8 0.00 0.00 0.00 59 1009.1
20260509145832 15 63 1.6 4.8 0.00 0.00 0.00 59 1009.2
20260509145327 16 49 6.4 11.3 0.00 0.00 0.00 59 1008.9
20260509144823 16 43 6.4 11.3 0.00 0.00 0.00 58 1009.1
20260509144320 16 350 6.4 11.3 0.00 0.00 0.00 55 1008.9
20260509143818 16 336 3.2 4.8 0.00 0.00 0.00 57 1009.0
20260509143315 15 41 3.2 6.4 0.00 0.00 0.00 57 1008.9
20260509142811 15 29 3.2 11.3 0.00 0.00 0.00 58 1009.0
20260509142307 15 324 9.7 11.3 0.00 0.00 0.00 55 1009.0
20260509141802 15 30 4.8 6.4 0.00 0.00 0.00 56 1008.9
20260509141300 15 23 3.2 4.8 0.00 0.00 0.00 60 1008.9
20260509140756 14 19 4.8 6.4 0.00 0.00 0.00 62 1009.0
20260509140254 14 23 1.6 3.2 0.00 0.00 0.00 65 1009.2
20260509135752 14 28 4.8 4.8 0.00 0.00 0.00 62 1009.4
20260509135249 14 348 3.2 4.8 0.00 0.00 0.00 60 1009.2
20260509134745 14 29 4.8 4.8 0.00 0.00 0.00 62 1009.1
20260509134243 14 37 1.6 4.8 0.00 0.00 0.00 62 1009.5
20260509133740 13 5 3.2 3.2 0.00 0.00 0.00 62 1009.2
20260509133237 13 14 3.2 6.4 0.00 0.00 0.00 63 1009.2
20260509132735 13 7 3.2 6.4 0.00 0.00 0.00 65 1009.5
20260509132234 13 336 1.6 3.2 0.00 0.00 0.00 66 1009.4
20260509131730 13 6 0.0 0.0 0.00 0.00 0.00 68 1009.1
20260509131227 13 357 0.0 0.0 0.00 0.00 0.00 66 1009.2
20260509130722 13 356 0.0 1.6 0.00 0.00 0.00 65 1009.0
20260509130218 13 300 0.0 0.0 0.00 0.00 0.00 65 1009.2
20260509125715 13 348 0.0 1.6 0.00 0.00 0.00 66 1009.0
20260509125213 13 348 0.0 0.0 0.00 0.00 0.00 65 1008.9
20260509124708 12 348 0.0 0.0 0.00 0.00 0.00 67 1009.0
20260509124205 12 348 0.0 0.0 0.00 0.00 0.00 67 1008.9
20260509123704 12 348 0.0 0.0 0.00 0.00 0.00 67 1008.9
20260509123200 12 348 0.0 0.0 0.00 0.00 0.00 67 1009.1
20260509122656 12 347 0.0 1.6 0.00 0.00 0.00 66 1009.2
20260509122153 12 349 0.0 1.6 0.00 0.00 0.00 66 1009.2
20260509121649 12 158 0.0 1.6 0.00 0.00 0.00 67 1009.4
20260509121148 12 40 0.0 0.0 0.00 0.00 0.00 65 1009.4
20260509120646 12 46 0.0 0.0 0.00 0.00 0.00 67 1009.2
20260509120143 12 37 1.6 3.2 0.00 0.00 0.00 66 1009.1
20260509115640 12 54 0.0 1.6 0.00 0.00 0.00 67 1009.1
20260509115138 12 50 1.6 3.2 0.00 0.00 0.00 67 1009.0
20260509114636 12 20 1.6 1.6 0.00 0.00 0.00 70 1009.2
20260509114135 12 111 0.0 0.0 0.00 0.00 0.00 70 1009.1
20260509113633 12 137 0.0 0.0 0.00 0.00 0.00 64 1009.2
20260509113130 12 123 3.2 4.8 0.00 0.00 0.00 67 1009.2
20260509112626 11 140 1.6 3.2 0.00 0.00 0.00 70 1009.2
20260509112123 11 141 0.0 0.0 0.00 0.00 0.00 70 1009.1
20260509111620 12 94 0.0 1.6 0.00 0.00 0.00 67 1009.0
20260509111117 11 164 0.0 0.0 0.00 0.00 0.00 66 1008.8
20260509110614 12 163 0.0 1.6 0.00 0.00 0.00 68 1008.6
20260509110111 12 55 0.0 1.6 0.00 0.00 0.00 65 1008.8
20260509105609 12 35 1.6 3.2 0.00 0.00 0.00 66 1008.6
20260509105107 13 6 0.0 3.2 0.00 0.00 0.00 64 1008.6
20260509104603 13 114 4.8 6.4 0.00 0.00 0.00 54 1008.7
20260509104100 12 259 0.0 1.6 0.00 0.00 0.00 64 1008.6
20260509103558 12 88 0.0 0.0 0.00 0.00 0.00 59 1008.7
20260509103056 12 97 0.0 1.6 0.00 0.00 0.00 61 1008.5
20260509102553 13 25 3.2 3.2 0.00 0.00 0.00 59 1008.8
20260509102050 13 158 0.0 3.2 0.00 0.00 0.00 52 1008.7
20260509101546 13 133 8.0 9.7 0.00 0.00 0.00 50 1008.6
20260509101043 13 138 4.8 9.7 0.00 0.00 0.00 51 1008.6
20260509100540 13 112 11.3 12.9 0.00 0.00 0.00 50 1008.5
20260509100038 13 131 8.0 11.3 0.00 0.00 0.00 50 1008.3
20260509095534 14 129 8.0 12.9 0.00 0.00 0.00 50 1008.6
20260509095032 14 139 9.7 11.3 0.00 0.00 0.00 49 1008.3
20260509094527 13 147 9.7 11.3 0.00 0.00 0.00 51 1008.6
20260509094025 14 135 4.8 9.7 0.00 0.00 0.00 51 1008.6
20260509093523 14 127 9.7 11.3 0.00 0.00 0.00 49 1008.6
20260509093021 13 138 6.4 9.7 0.00 0.00 0.00 51 1008.7
20260509092518 13 138 6.4 6.4 0.00 0.00 0.00 50 1008.8
20260509092017 14 132 6.4 9.7 0.00 0.00 0.00 49 1008.7
20260509091514 14 151 6.4 6.4 0.00 0.00 0.00 51 1008.9
20260509091010 14 134 6.4 12.9 0.00 0.00 0.00 49 1008.6
20260509090508 14 148 6.4 9.7 0.00 0.00 0.00 50 1008.7
20260509090005 14 149 6.4 11.3 0.00 0.00 0.00 50 1008.8
20260509085502 14 124 8.0 9.7 0.00 0.00 0.00 50 1009.0
20260509084958 14 150 8.0 11.3 0.00 0.00 0.00 50 1008.9
20260509084455 14 148 8.0 11.3 0.00 0.00 0.00 49 1008.9
20260509083952 14 159 8.0 9.7 0.00 0.00 0.00 50 1008.9
20260509083450 14 120 11.3 12.9 0.00 0.00 0.00 48 1008.8
20260509082946 14 145 9.7 11.3 0.00 0.00 0.00 49 1008.8
20260509082444 14 154 8.0 9.7 0.00 0.00 0.00 48 1008.8
20260509081941 14 139 6.4 11.3 0.00 0.00 0.00 49 1008.9
20260509081438 14 172 8.0 9.7 0.00 0.00 0.00 49 1008.9
20260509080935 14 145 8.0 12.9 0.00 0.00 0.00 49 1009.0
20260509080433 14 161 4.8 6.4 0.00 0.00 0.00 49 1008.9
20260509075931 14 134 6.4 9.7 0.00 0.00 0.00 48 1008.9
20260509075427 14 140 6.4 11.3 0.00 0.00 0.00 49 1008.9
20260509074926 14 137 9.7 11.3 0.00 0.00 0.00 48 1009.0
20260509074423 14 143 9.7 11.3 0.00 0.00 0.00 48 1009.0
20260509073919 14 160 4.8 6.4 0.00 0.00 0.00 50 1008.9
20260509073415 14 186 6.4 6.4 0.00 0.00 0.00 50 1009.1
20260509072912 14 147 8.0 12.9 0.00 0.00 0.00 48 1009.1
20260509072408 14 150 3.2 6.4 0.00 0.00 0.00 51 1009.0
20260509071905 14 124 4.8 6.4 0.00 0.00 0.00 50 1009.1
20260509071402 15 159 6.4 11.3 0.00 0.00 0.00 48 1009.0
20260509070900 14 150 4.8 6.4 0.00 0.00 0.00 51 1009.0
20260509070356 15 195 4.8 9.7 0.00 0.00 0.00 50 1009.1
20260509065852 14 158 6.4 9.7 0.00 0.00 0.00 48 1009.2
20260509065348 14 177 6.4 6.4 0.00 0.00 0.00 51 1009.4
20260509064844 14 175 3.2 4.8 0.00 0.00 0.00 51 1009.5
20260509064342 14 155 4.8 4.8 0.00 0.00 0.00 51 1009.2
20260509063839 14 164 4.8 6.4 0.00 0.00 0.00 51 1009.2
20260509063335 13 147 6.4 11.3 0.00 0.00 0.00 51 1009.4
20260509062833 13 161 4.8 9.7 0.00 0.00 0.00 54 1009.2
20260509062330 12 171 3.2 4.8 0.00 0.00 0.00 56 1009.4
20260509061827 12 137 1.6 1.6 0.00 0.00 0.00 61 1009.5
20260509061325 12 177 0.0 3.2 0.00 0.00 0.00 62 1009.5
20260509060822 13 129 6.4 6.4 0.00 0.00 0.00 53 1009.6
20260509060319 11 127 4.8 4.8 0.00 0.00 0.00 58 1009.5
20260509055814 11 164 0.0 0.0 0.00 0.00 0.00 68 1009.7
20260509055310 11 144 1.6 1.6 0.00 0.00 0.00 66 1009.6
20260509054807 12 142 1.6 3.2 0.00 0.00 0.00 62 1009.7
20260509054304 12 141 3.2 3.2 0.00 0.00 0.00 62 1009.8
20260509053802 11 129 1.6 1.6 0.00 0.00 0.00 69 1009.6
20260509053259 11 129 0.0 0.0 0.00 0.00 0.00 71 1009.9
20260509052757 11 106 0.0 0.0 0.00 0.00 0.00 71 1009.9
20260509052254 11 318 0.0 0.0 0.00 0.00 0.00 71 1009.9
20260509051752 11 309 0.0 0.0 0.00 0.00 0.00 70 1010.0
20260509051250 12 309 0.0 1.6 0.00 0.00 0.00 69 1010.2
20260509050746 12 310 1.6 1.6 0.00 0.00 0.00 67 1010.1
20260509050242 13 236 1.6 9.7 0.00 0.00 0.00 57 1010.1
20260509045740 13 162 4.8 6.4 0.00 0.00 0.00 60 1009.8
20260509045236 12 129 4.8 4.8 0.00 0.00 0.00 67 1009.8
20260509044734 12 127 0.0 0.0 0.00 0.00 0.00 66 1010.0
20260509044232 12 67 0.0 0.0 0.00 0.00 0.00 65 1010.1
20260509043727 12 67 0.0 0.0 0.00 0.00 0.00 65 1010.1
20260509043224 12 66 0.0 0.0 0.00 0.00 0.00 65 1010.0
20260509042720 12 66 0.0 0.0 0.00 0.00 0.00 65 1010.1
20260509042216 12 62 0.0 0.0 0.00 0.00 0.00 65 1009.9
20260509041713 12 68 0.0 0.0 0.00 0.00 0.00 64 1010.0
20260509041210 12 74 0.0 0.0 0.00 0.00 0.00 64 1010.0
20260509040709 12 76 0.0 0.0 0.00 0.00 0.00 64 1009.9
20260509040205 12 76 0.0 0.0 0.00 0.00 0.00 65 1010.1
20260509035702 12 57 0.0 0.0 0.00 0.00 0.00 66 1009.9
20260509035159 12 55 0.0 1.6 0.00 0.00 0.00 67 1009.9
20260509034656 12 11 0.0 0.0 0.00 0.00 0.00 65 1009.9
20260509034153 12 10 0.0 0.0 0.00 0.00 0.00 64 1010.0
20260509033650 12 90 0.0 0.0 0.00 0.00 0.00 63 1010.1
20260509033147 13 96 0.0 0.0 0.00 0.00 0.00 62 1010.0
20260509032645 12 97 0.0 0.0 0.00 0.00 0.00 62 1009.9
20260509032141 12 122 0.0 0.0 0.00 0.00 0.00 63 1009.9
20260509031639 13 117 0.0 3.2 0.00 0.00 0.00 61 1009.9
20260509031136 12 222 0.0 1.6 0.00 0.00 0.00 63 1010.1
20260509030635 13 255 0.0 1.6 0.00 0.00 0.00 62 1010.1
20260509030131 13 247 1.6 3.2 0.00 0.00 0.00 62 1010.2
20260509025627 13 135 0.0 0.0 0.00 0.00 0.00 59 1010.1
20260509025123 14 126 0.0 0.0 0.00 0.00 0.00 56 1010.1
20260509024619 14 130 3.2 4.8 0.00 0.00 0.00 53 1010.4
20260509024115 14 118 3.2 4.8 0.00 0.00 0.00 55 1010.3
20260509023613 13 132 4.8 4.8 0.00 0.00 0.00 54 1010.2
20260509023110 13 141 3.2 4.8 0.00 0.00 0.00 58 1010.3